This is the latest recevied weather packets stored in our database for station/object OE3PDB-4. If no packets are shown the sender has not sent any weather packets the latest 1 day(s).
| Time | Temp. | Humidity | Pressure | Rain* | Wind** | Luminosity | Snow |
|---|---|---|---|---|---|---|---|
| 1778065799 | 25.56° C | 41% | 1007.4 hPa | 0 mm | - | - | - |
| 1778065199 | 25° C | 41% | 1007.5 hPa | 0 mm | - | - | - |
| 1778064599 | 25° C | 42% | 1007.7 hPa | 0 mm | - | - | - |
| 1778063999 | 24.44° C | 42% | 1008 hPa | 0 mm | - | - | - |
| 1778063399 | 23.89° C | 42% | 1008.1 hPa | 0 mm | - | - | - |
| 1778062799 | 23.89° C | 42% | 1008.1 hPa | 0 mm | - | - | - |
| 1778062199 | 24.44° C | 42% | 1008.2 hPa | 0 mm | - | - | - |
| 1778061599 | 23.89° C | 43% | 1008.3 hPa | 0 mm | - | - | - |
| 1778060999 | 23.89° C | 42% | 1008.3 hPa | 0 mm | - | - | - |
| 1778060399 | 23.89° C | 42% | 1008.5 hPa | 0 mm | - | - | - |
| 1778059799 | 23.89° C | 43% | 1008.5 hPa | 0 mm | - | - | - |
| 1778059199 | 23.33° C | 44% | 1008.7 hPa | 0 mm | - | - | - |
| 1778058599 | 23.33° C | 44% | 1008.7 hPa | 0 mm | - | - | - |
| 1778057999 | 23.33° C | 44% | 1008.6 hPa | 0 mm | - | - | - |
| 1778057399 | 23.33° C | 43% | 1008.8 hPa | 0 mm | - | - | - |
| 1778056799 | 23.33° C | 45% | 1008.7 hPa | 0 mm | - | - | - |
| 1778056199 | 22.78° C | 47% | 1008.7 hPa | 0 mm | - | - | - |
| 1778055599 | 22.78° C | 46% | 1008.7 hPa | 0 mm | - | - | - |
| 1778054999 | 22.22° C | 47% | 1008.9 hPa | 0 mm | - | - | - |
| 1778054399 | 21.67° C | 48% | 1009 hPa | 0 mm | - | - | - |
| 1778053799 | 21.67° C | 50% | 1009 hPa | 0 mm | - | - | - |
| 1778053199 | 21.11° C | 51% | 1009.1 hPa | 0 mm | - | - | - |
| 1778052599 | 21.11° C | 52% | 1009.1 hPa | 0 mm | - | - | - |
| 1778051999 | 20.56° C | 53% | 1009.1 hPa | 0 mm | - | - | - |
| 1778051399 | 20° C | 54% | 1009.1 hPa | 0 mm | - | - | - |
* Rain latest hour (hover to see other rain measurements)
** Current wind speed in m/s (hover to see current wind gust speed)